This is the latest recevied weather packets stored in our database for station/object N6WDO. If no packets are shown the sender has not sent any weather packets the latest 10 day(s).
| Time | Temp. | Humidity | Pressure | Rain* | Wind** | Luminosity | Snow |
|---|---|---|---|---|---|---|---|
| 1777557326 | 10.56° C | 84% | 1015.6 hPa | 0 mm | - | 28 W/m² | - |
| 1777557023 | 10° C | 85% | 1015.7 hPa | 0 mm | - | 26 W/m² | - |
| 1777556718 | 9.44° C | 87% | 1015.8 hPa | 0 mm | - | 24 W/m² | - |
| 1777556415 | 9.44° C | 85% | 1015.6 hPa | 0 mm | - | 21 W/m² | - |
| 1777556115 | 8.89° C | 85% | 1015.7 hPa | 0 mm | - | 19 W/m² | - |
| 1777555811 | 9.44° C | 84% | 1015.8 hPa | 0 mm | - | 16 W/m² | - |
| 1777555506 | 8.89° C | 85% | 1015.5 hPa | 0 mm | - | 13 W/m² | - |
| 1777555203 | 9.44° C | 83% | 1015.5 hPa | 0 mm | - | 10 W/m² | - |
| 1777554900 | 9.44° C | 82% | 1015.5 hPa | 0 mm | - | 7 W/m² | - |
| 1777554596 | 10° C | 81% | 1015.5 hPa | 0 mm | - | 5 W/m² | - |
| 1777554293 | 8.89° C | 83% | 1015.6 hPa | 0 mm | - | 3 W/m² | - |
| 1777553991 | 9.44° C | 84% | 1015.5 hPa | 0 mm | - | 1 W/m² | - |
| 1777553687 | 8.89° C | 83% | 1015.7 hPa | 0 mm | - | 1 W/m² | - |
| 1777553384 | 9.44° C | 84% | 1015.5 hPa | 0 mm | - | 0 W/m² | - |
| 1777553080 | 9.44° C | 83% | 1015.6 hPa | 0 mm | - | 0 W/m² | - |
| 1777552779 | 9.44° C | 84% | 1015.8 hPa | 0 mm | - | 0 W/m² | - |
| 1777552475 | 8.89° C | 84% | 1015.8 hPa | 0 mm | - | 0 W/m² | - |
| 1777552172 | 8.89° C | 88% | 1015.8 hPa | 0 mm | - | 0 W/m² | - |
| 1777551869 | 8.89° C | 88% | 1015.6 hPa | 0 mm | - | 0 W/m² | - |
| 1777551567 | 8.89° C | 88% | 1015.7 hPa | 0 mm | - | 0 W/m² | - |
| 1777551264 | 8.89° C | 88% | 1015.6 hPa | 0 mm | - | 0 W/m² | - |
| 1777550960 | 9.44° C | 85% | 1015.7 hPa | 0 mm | - | 0 W/m² | - |
| 1777550657 | 9.44° C | 84% | 1015.8 hPa | 0 mm | - | 0 W/m² | - |
| 1777550353 | 9.44° C | 85% | 1015.9 hPa | 0 mm | - | 0 W/m² | - |
| 1777550049 | 8.89° C | 88% | 1015.8 hPa | 0 mm | - | 0 W/m² | - |
* Rain latest hour (hover to see other rain measurements)
** Current wind speed in m/s (hover to see current wind gust speed)